Location: B
(0.0000°N, 0.0000°E)
Time: 11:18:40
(UTC+02:00)

ISS - All Passes

Search period start: 23 October 2014 00:00
Search period end: 01 November 2014 23:00
Orbit: 413 x 416 km, 51.6° (Epoch: 22 October)

Date Brightness Start Highest point End Pass type
(mag) Time Alt. Az. Time Alt. Az. Time Alt. Az.
23 Oct - 00:25:39 10° NW 00:28:56 64° SW 00:32:14 10° SSE night (unlit)
23 Oct - 12:01:09 10° SSW 12:04:28 76° SE 12:07:46 10° NE daylight
23 Oct - 23:36:43 10° NNW 23:39:54 45° NE 23:43:06 10° SE night (unlit)
24 Oct - 11:12:29 10° S 11:15:24 28° SE 11:18:18 10° ENE daylight
24 Oct - 22:48:24 10° N 22:50:49 19° NE 22:53:14 10° E night (unlit)
25 Oct - 00:25:37 10° W 00:27:18 13° SW 00:29:00 10° SSW night (unlit)
25 Oct - 10:24:47 10° SSE 10:26:17 13° SE 10:27:46 10° E daylight
25 Oct - 12:00:16 10° WSW 12:02:46 20° NW 12:05:16 10° N daylight
25 Oct - 23:35:12 10° WNW 23:38:10 30° SW 23:41:08 10° S night (unlit)
26 Oct - 10:10:25 10° SW 10:13:38 49° NW 10:16:50 10° NNE daylight
26 Oct - 21:45:42 10° NW 21:49:00 83° SW 21:52:19 10° SSE night (unlit)
27 Oct - 09:21:11 10° SSW 09:24:27 58° SE 09:27:43 10° NE daylight
27 Oct - 20:56:45 10° NNW 20:59:49 35° NE 21:02:53 10° ESE night (unlit)
28 Oct - 08:32:33 10° S 08:35:14 23° SE 08:37:55 10° ENE daylight
28 Oct - 10:10:53 10° WNW 10:11:43 11° NW 10:12:33 10° NW daylight
28 Oct - 20:08:33 10° NNE 20:10:34 15° NE 20:12:35 10° E night (unlit)
28 Oct - 21:44:52 10° W 21:47:03 16° SW 21:49:14 10° SSW night (unlit)
29 Oct - 09:19:41 10° WSW 09:22:26 24° NW 09:25:12 10° N daylight
29 Oct - 20:54:38 10° NW 20:57:45 38° SW 21:00:53 10° SSE visible
30 Oct - 08:29:52 10° SW 08:33:09 64° NW 08:36:25 10° NNE daylight
30 Oct - 20:05:09 10° NNW 20:08:27 75° NE 20:11:45 10° SE visible
31 Oct - 07:40:39 10° SSW 07:43:49 44° SE 07:46:59 10° NE daylight
31 Oct - 19:16:13 10° N 19:19:06 27° NE 19:21:59 10° ESE visible
01 Nov - 06:52:04 10° S 06:54:27 18° SE 06:56:48 10° E daylight
01 Nov - 08:29:11 10° W 08:30:55 14° NW 08:32:38 10° NNW daylight
01 Nov - 18:28:20 10° NNE 18:29:41 12° NE 18:31:03 10° ENE daylight
01 Nov - 20:03:37 10° WNW 20:06:09 20° SW 20:08:43 10° S visible
